| time (UTC) | temp F | wind direction | speed MPH | gust MPH | rain 1hr in | rain 24hr in | rain mn in | humidity % | barometer mb |
| 20260508192052 | 49 | 88 | 6.0 | 8.0 | 0.00 | 0.00 | 0.00 | 62 | 1023.7 |
| 20260508191548 | 48 | 18 | 2.0 | 8.0 | 0.00 | 0.00 | 0.00 | 64 | 1023.5 |
| 20260508191045 | 49 | 325 | 5.0 | 7.0 | 0.00 | 0.00 | 0.00 | 64 | 1023.7 |
| 20260508190542 | 49 | 298 | 2.0 | 7.0 | 0.00 | 0.00 | 0.00 | 62 | 1023.9 |
| 20260508190038 | 50 | 95 | 3.0 | 8.0 | 0.00 | 0.00 | 0.00 | 57 | 1023.7 |
| 20260508185536 | 49 | 333 | 3.0 | 10.0 | 0.00 | 0.00 | 0.00 | 61 | 1023.9 |
| 20260508185033 | 48 | 25 | 2.0 | 7.0 | 0.00 | 0.00 | 0.00 | 62 | 1023.9 |
| 20260508184531 | 50 | 353 | 3.0 | 8.0 | 0.00 | 0.00 | 0.00 | 61 | 1023.9 |
| 20260508184027 | 50 | 357 | 2.0 | 6.0 | 0.00 | 0.00 | 0.00 | 62 | 1023.5 |
| 20260508183524 | 48 | 170 | 6.0 | 9.0 | 0.00 | 0.00 | 0.00 | 64 | 1023.9 |
| 20260508183020 | 49 | 316 | 5.0 | 6.0 | 0.00 | 0.00 | 0.00 | 60 | 1024.0 |
| 20260508182517 | 47 | 265 | 1.0 | 6.0 | 0.00 | 0.00 | 0.00 | 66 | 1023.9 |
| 20260508182013 | 49 | 357 | 4.0 | 10.0 | 0.00 | 0.00 | 0.00 | 65 | 1023.6 |
| 20260508181508 | 50 | 250 | 2.0 | 6.0 | 0.00 | 0.00 | 0.00 | 63 | 1023.7 |
| 20260508181007 | 48 | 317 | 1.0 | 7.0 | 0.00 | 0.00 | 0.00 | 67 | 1024.0 |
| 20260508180503 | 49 | 16 | 4.0 | 9.0 | 0.00 | 0.00 | 0.00 | 65 | 1023.7 |
| 20260508175959 | 49 | 316 | 5.0 | 10.0 | 0.00 | 0.00 | 0.00 | 63 | 1023.7 |
| 20260508175455 | 48 | 338 | 2.0 | 4.0 | 0.00 | 0.00 | 0.00 | 65 | 1023.9 |
| 20260508174953 | 48 | 0 | 2.0 | 9.0 | 0.00 | 0.00 | 0.00 | 66 | 1024.0 |
| 20260508174451 | 48 | 23 | 6.0 | 10.0 | 0.00 | 0.00 | 0.00 | 65 | 1023.9 |
| 20260508173947 | 50 | 313 | 6.0 | 9.0 | 0.00 | 0.00 | 0.00 | 61 | 1023.9 |
| 20260508173445 | 51 | 322 | 5.0 | 8.0 | 0.00 | 0.00 | 0.00 | 58 | 1023.7 |
| 20260508172940 | 52 | 335 | 8.0 | 10.0 | 0.00 | 0.00 | 0.00 | 39 | 1023.5 |
| 20260508172438 | 53 | 343 | 8.0 | 10.0 | 0.00 | 0.00 | 0.00 | 44 | 1023.9 |
| 20260508171934 | 53 | 4 | 10.0 | 15.0 | 0.00 | 0.00 | 0.00 | 38 | 1023.9 |
| 20260508171430 | 51 | 319 | 6.0 | 9.0 | 0.00 | 0.00 | 0.00 | 39 | 1024.0 |
| 20260508170927 | 51 | 344 | 11.0 | 15.0 | 0.00 | 0.00 | 0.00 | 39 | 1024.1 |
| 20260508170425 | 52 | 314 | 6.0 | 13.0 | 0.00 | 0.00 | 0.00 | 38 | 1023.9 |
| 20260508165921 | 52 | 340 | 7.0 | 11.0 | 0.00 | 0.00 | 0.00 | 40 | 1023.7 |
| 20260508165419 | 52 | 328 | 6.0 | 9.0 | 0.00 | 0.00 | 0.00 | 40 | 1023.6 |
| 20260508164915 | 50 | 353 | 6.0 | 17.0 | 0.00 | 0.00 | 0.00 | 42 | 1023.9 |
| 20260508164412 | 51 | 357 | 10.0 | 14.0 | 0.00 | 0.00 | 0.00 | 42 | 1023.7 |
| 20260508163909 | 50 | 321 | 9.0 | 13.0 | 0.00 | 0.00 | 0.00 | 41 | 1023.9 |
| 20260508163407 | 50 | 9 | 8.0 | 11.0 | 0.00 | 0.00 | 0.00 | 43 | 1024.1 |
| 20260508162902 | 50 | 15 | 7.0 | 10.0 | 0.00 | 0.00 | 0.00 | 45 | 1023.7 |
| 20260508162400 | 49 | 7 | 6.0 | 9.0 | 0.00 | 0.00 | 0.00 | 44 | 1024.0 |
| 20260508161857 | 49 | 312 | 9.0 | 13.0 | 0.00 | 0.00 | 0.00 | 47 | 1023.9 |
| 20260508161354 | 49 | 261 | 3.0 | 8.0 | 0.00 | 0.00 | 0.00 | 50 | 1023.9 |
| 20260508160851 | 48 | 319 | 3.0 | 7.0 | 0.00 | 0.00 | 0.00 | 49 | 1023.9 |
| 20260508160350 | 48 | 306 | 6.0 | 8.0 | 0.00 | 0.00 | 0.00 | 50 | 1023.9 |
| 20260508155845 | 47 | 333 | 9.0 | 13.0 | 0.00 | 0.00 | 0.00 | 51 | 1023.7 |
| 20260508155343 | 47 | 336 | 4.0 | 10.0 | 0.00 | 0.00 | 0.00 | 56 | 1023.7 |
| 20260508154840 | 47 | 315 | 4.0 | 7.0 | 0.00 | 0.00 | 0.00 | 55 | 1023.7 |
| 20260508154337 | 46 | 308 | 9.0 | 10.0 | 0.00 | 0.00 | 0.00 | 53 | 1023.9 |
| 20260508153833 | 45 | 301 | 4.0 | 9.0 | 0.00 | 0.00 | 0.00 | 55 | 1023.9 |
| 20260508153331 | 45 | 39 | 2.0 | 6.0 | 0.00 | 0.00 | 0.00 | 63 | 1024.0 |
| 20260508152827 | 44 | 314 | 3.0 | 7.0 | 0.00 | 0.00 | 0.00 | 62 | 1024.0 |
| 20260508152324 | 44 | 280 | 6.0 | 9.0 | 0.00 | 0.00 | 0.00 | 62 | 1023.9 |
| 20260508151820 | 45 | 315 | 1.0 | 6.0 | 0.00 | 0.00 | 0.00 | 59 | 1023.9 |
| 20260508151317 | 46 | 277 | 2.0 | 8.0 | 0.00 | 0.00 | 0.00 | 57 | 1023.9 |
| 20260508150813 | 47 | 336 | 5.0 | 7.0 | 0.00 | 0.00 | 0.00 | 57 | 1024.1 |
| 20260508150310 | 44 | 327 | 1.0 | 3.0 | 0.00 | 0.00 | 0.00 | 56 | 1024.0 |
| 20260508145806 | 44 | 306 | 1.0 | 7.0 | 0.00 | 0.00 | 0.00 | 63 | 1023.9 |
| 20260508145306 | 44 | 294 | 2.0 | 4.0 | 0.00 | 0.00 | 0.00 | 63 | 1024.0 |
| 20260508144759 | 44 | 262 | 1.0 | 4.0 | 0.00 | 0.00 | 0.00 | 66 | 1024.1 |
| 20260508144257 | 44 | 338 | 3.0 | 3.0 | 0.00 | 0.00 | 0.00 | 68 | 1023.9 |
| 20260508143755 | 44 | 264 | 1.0 | 8.0 | 0.00 | 0.00 | 0.00 | 62 | 1023.9 |
| 20260508143252 | 43 | 277 | 3.0 | 7.0 | 0.00 | 0.00 | 0.00 | 65 | 1023.7 |
| 20260508142748 | 43 | 309 | 4.0 | 7.0 | 0.00 | 0.00 | 0.00 | 62 | 1023.9 |
| 20260508142245 | 42 | 324 | 3.0 | 7.0 | 0.00 | 0.00 | 0.00 | 65 | 1024.0 |
| 20260508141741 | 41 | 275 | 0.0 | 2.0 | 0.00 | 0.00 | 0.00 | 78 | 1024.1 |
| 20260508141239 | 44 | 332 | 4.0 | 7.0 | 0.00 | 0.00 | 0.00 | 58 | 1024.1 |
| 20260508140736 | 42 | 277 | 4.0 | 6.0 | 0.00 | 0.00 | 0.00 | 62 | 1024.1 |
| 20260508140233 | 40 | 268 | 0.0 | 2.0 | 0.00 | 0.00 | 0.00 | 71 | 1024.0 |
| 20260508135729 | 37 | 248 | 1.0 | 3.0 | 0.00 | 0.00 | 0.00 | 92 | 1024.3 |
| 20260508135225 | 36 | 196 | 1.0 | 2.0 | 0.00 | 0.00 | 0.00 | 98 | 1024.0 |
| 20260508134721 | 34 | 248 | 0.0 | 1.0 | 0.00 | 0.00 | 0.00 | 98 | 1024.1 |
| 20260508134218 | 33 | 241 | 2.0 | 2.0 | 0.00 | 0.00 | 0.00 | 98 | 1024.1 |
| 20260508133715 | 33 | 265 | 0.0 | 2.0 | 0.00 | 0.00 | 0.00 | 98 | 1024.1 |
| 20260508133213 | 33 | 291 | 0.0 | 0.0 | 0.00 | 0.00 | 0.00 | 98 | 1024.1 |
| 20260508132710 | 33 | 211 | 1.0 | 1.0 | 0.00 | 0.00 | 0.00 | 97 | 1024.1 |
| 20260508132207 | 33 | 255 | 0.0 | 0.0 | 0.00 | 0.00 | 0.00 | 97 | 1024.1 |
| 20260508131657 | 33 | 257 | 0.0 | 0.0 | 0.00 | 0.00 | 0.00 | 97 | 1024.3 |
| 20260508131154 | 33 | 266 | 0.0 | 2.0 | 0.00 | 0.00 | 0.00 | 97 | 1024.1 |
| 20260508130651 | 33 | 279 | 1.0 | 2.0 | 0.00 | 0.00 | 0.00 | 96 | 1024.1 |
| 20260508130148 | 32 | 281 | 1.0 | 1.0 | 0.00 | 0.00 | 0.00 | 95 | 1024.3 |
| 20260508125643 | 32 | 80 | 3.0 | 7.0 | 0.00 | 0.00 | 0.00 | 94 | 1024.4 |
| 20260508125140 | 33 | 34 | 4.0 | 6.0 | 0.00 | 0.00 | 0.00 | 88 | 1023.9 |
| 20260508124638 | 37 | 340 | 2.0 | 3.0 | 0.00 | 0.00 | 0.00 | 73 | 1023.7 |
| 20260508124135 | 37 | 253 | 0.0 | 0.0 | 0.00 | 0.00 | 0.00 | 71 | 1023.6 |
| 20260508123634 | 38 | 248 | 0.0 | 2.0 | 0.00 | 0.00 | 0.00 | 68 | 1023.5 |
| 20260508123131 | 36 | 139 | 2.0 | 2.0 | 0.00 | 0.00 | 0.00 | 71 | 1023.2 |
| 20260508122627 | 35 | 255 | 0.0 | 4.0 | 0.00 | 0.00 | 0.00 | 74 | 1023.2 |
| 20260508122124 | 34 | 228 | 0.0 | 1.0 | 0.00 | 0.00 | 0.00 | 75 | 1023.1 |
| 20260508121622 | 34 | 220 | 2.0 | 2.0 | 0.00 | 0.00 | 0.00 | 74 | 1023.1 |
| 20260508121120 | 34 | 211 | 2.0 | 2.0 | 0.00 | 0.00 | 0.00 | 73 | 1023.1 |
| 20260508120617 | 34 | 224 | 2.0 | 2.0 | 0.00 | 0.00 | 0.00 | 73 | 1022.9 |
| 20260508120116 | 34 | 214 | 3.0 | 3.0 | 0.00 | 0.00 | 0.00 | 71 | 1022.8 |
| 20260508115613 | 34 | 234 | 2.0 | 3.0 | 0.00 | 0.00 | 0.00 | 74 | 1022.8 |
| 20260508115109 | 35 | 232 | 1.0 | 2.0 | 0.00 | 0.00 | 0.00 | 72 | 1022.7 |
| 20260508114607 | 35 | 213 | 2.0 | 2.0 | 0.00 | 0.00 | 0.00 | 74 | 1022.5 |
| 20260508114102 | 35 | 250 | 0.0 | 2.0 | 0.00 | 0.00 | 0.00 | 74 | 1022.5 |
| 20260508113600 | 35 | 233 | 1.0 | 3.0 | 0.00 | 0.00 | 0.00 | 71 | 1022.7 |
| 20260508113058 | 37 | 224 | 1.0 | 2.0 | 0.00 | 0.00 | 0.00 | 69 | 1022.7 |
| 20260508112554 | 38 | 231 | 1.0 | 3.0 | 0.00 | 0.00 | 0.00 | 68 | 1022.7 |
| 20260508112051 | 38 | 155 | 4.0 | 7.0 | 0.00 | 0.00 | 0.00 | 67 | 1022.5 |
| 20260508111548 | 37 | 233 | 3.0 | 3.0 | 0.00 | 0.00 | 0.00 | 69 | 1022.5 |
| 20260508111045 | 39 | 285 | 2.0 | 6.0 | 0.00 | 0.00 | 0.00 | 65 | 1022.4 |
| 20260508110543 | 40 | 299 | 5.0 | 10.0 | 0.00 | 0.00 | 0.00 | 59 | 1022.4 |
| 20260508110038 | 39 | 249 | 0.0 | 4.0 | 0.00 | 0.00 | 0.00 | 64 | 1022.1 |
| 20260508105533 | 39 | 262 | 4.0 | 14.0 | 0.00 | 0.00 | 0.00 | 62 | 1022.3 |
| 20260508105031 | 37 | 247 | 1.0 | 2.0 | 0.00 | 0.00 | 0.00 | 67 | 1022.1 |
| 20260508104529 | 35 | 180 | 4.0 | 8.0 | 0.00 | 0.00 | 0.00 | 71 | 1022.3 |
| 20260508104025 | 35 | 207 | 4.0 | 6.0 | 0.00 | 0.00 | 0.00 | 80 | 1022.0 |
| 20260508103522 | 33 | 227 | 4.0 | 4.0 | 0.00 | 0.00 | 0.00 | 81 | 1022.3 |
| 20260508103020 | 34 | 256 | 0.0 | 3.0 | 0.00 | 0.00 | 0.00 | 79 | 1022.5 |
| 20260508102517 | 33 | 205 | 2.0 | 6.0 | 0.00 | 0.00 | 0.00 | 79 | 1022.3 |
| 20260508102015 | 33 | 248 | 0.0 | 3.0 | 0.00 | 0.00 | 0.00 | 80 | 1022.1 |
| 20260508101512 | 33 | 230 | 1.0 | 2.0 | 0.00 | 0.00 | 0.00 | 80 | 1022.0 |
| 20260508101008 | 33 | 210 | 2.0 | 2.0 | 0.00 | 0.00 | 0.00 | 80 | 1022.0 |
| 20260508100507 | 33 | 234 | 1.0 | 3.0 | 0.00 | 0.00 | 0.00 | 80 | 1021.8 |
| 20260508100003 | 33 | 216 | 0.0 | 0.0 | 0.00 | 0.00 | 0.00 | 79 | 1021.9 |
| 20260508095500 | 33 | 242 | 2.0 | 3.0 | 0.00 | 0.00 | 0.00 | 78 | 1022.0 |
| 20260508094957 | 33 | 230 | 0.0 | 0.0 | 0.00 | 0.00 | 0.00 | 79 | 1022.0 |
| 20260508094454 | 33 | 248 | 0.0 | 4.0 | 0.00 | 0.00 | 0.00 | 78 | 1021.9 |
| 20260508093950 | 33 | 220 | 2.0 | 3.0 | 0.00 | 0.00 | 0.00 | 81 | 1021.9 |
| 20260508093447 | 34 | 250 | 1.0 | 6.0 | 0.00 | 0.00 | 0.00 | 78 | 1022.0 |
| 20260508092945 | 34 | 224 | 1.0 | 3.0 | 0.00 | 0.00 | 0.00 | 78 | 1022.0 |
| 20260508092443 | 34 | 208 | 3.0 | 4.0 | 0.00 | 0.00 | 0.00 | 78 | 1022.1 |
| 20260508091942 | 34 | 282 | 1.0 | 3.0 | 0.00 | 0.00 | 0.00 | 77 | 1022.0 |
| 20260508091438 | 35 | 197 | 4.0 | 4.0 | 0.00 | 0.00 | 0.00 | 76 | 1022.1 |
| 20260508090935 | 36 | 252 | 0.0 | 2.0 | 0.00 | 0.00 | 0.00 | 69 | 1022.1 |
| 20260508090434 | 37 | 223 | 2.0 | 2.0 | 0.00 | 0.00 | 0.00 | 70 | 1022.3 |
| 20260508085929 | 38 | 230 | 2.0 | 3.0 | 0.00 | 0.00 | 0.00 | 66 | 1022.3 |
| 20260508085426 | 39 | 262 | 0.0 | 1.0 | 0.00 | 0.00 | 0.00 | 66 | 1022.3 |
| 20260508084923 | 37 | 129 | 2.0 | 3.0 | 0.00 | 0.00 | 0.00 | 65 | 1022.3 |
| 20260508084419 | 39 | 265 | 0.0 | 4.0 | 0.00 | 0.00 | 0.00 | 63 | 1022.3 |
| 20260508083918 | 40 | 238 | 1.0 | 3.0 | 0.00 | 0.00 | 0.00 | 60 | 1022.4 |
| 20260508083415 | 42 | 258 | 0.0 | 9.0 | 0.00 | 0.00 | 0.00 | 53 | 1022.4 |
| 20260508082914 | 38 | 11 | 6.0 | 11.0 | 0.00 | 0.00 | 0.00 | 57 | 1022.3 |
| 20260508082412 | 37 | 226 | 2.0 | 2.0 | 0.00 | 0.00 | 0.00 | 69 | 1023.1 |
| 20260508081910 | 37 | 265 | 0.0 | 2.0 | 0.00 | 0.00 | 0.00 | 67 | 1022.7 |
| 20260508081406 | 37 | 224 | 2.0 | 3.0 | 0.00 | 0.00 | 0.00 | 68 | 1022.7 |
| 20260508080902 | 38 | 230 | 1.0 | 2.0 | 0.00 | 0.00 | 0.00 | 67 | 1022.7 |
| 20260508080401 | 39 | 212 | 2.0 | 3.0 | 0.00 | 0.00 | 0.00 | 63 | 1022.7 |
| 20260508075857 | 41 | 246 | 5.0 | 7.0 | 0.00 | 0.00 | 0.00 | 59 | 1022.9 |
| 20260508075354 | 40 | 231 | 3.0 | 4.0 | 0.00 | 0.00 | 0.00 | 58 | 1022.9 |
| 20260508074852 | 40 | 267 | 2.0 | 3.0 | 0.00 | 0.00 | 0.00 | 61 | 1022.9 |
| 20260508074348 | 40 | 262 | 0.0 | 1.0 | 0.00 | 0.00 | 0.00 | 60 | 1023.1 |
| 20260508073845 | 41 | 243 | 2.0 | 6.0 | 0.00 | 0.00 | 0.00 | 63 | 1023.2 |
| 20260508073344 | 41 | 229 | 3.0 | 4.0 | 0.00 | 0.00 | 0.00 | 60 | 1022.9 |
| 20260508072840 | 41 | 270 | 4.0 | 4.0 | 0.00 | 0.00 | 0.00 | 60 | 1023.5 |
| 20260508072336 | 42 | 232 | 2.0 | 7.0 | 0.00 | 0.00 | 0.00 | 60 | 1023.3 |
| 20260508071834 | 42 | 292 | 4.0 | 10.0 | 0.00 | 0.00 | 0.00 | 56 | 1023.1 |
| 20260508071332 | 41 | 271 | 1.0 | 3.0 | 0.00 | 0.00 | 0.00 | 60 | 1023.2 |
| 20260508070829 | 42 | 353 | 7.0 | 9.0 | 0.00 | 0.00 | 0.00 | 57 | 1023.3 |
| 20260508070327 | 41 | 315 | 3.0 | 3.0 | 0.00 | 0.00 | 0.00 | 61 | 1023.3 |
| 20260508065824 | 41 | 287 | 8.0 | 11.0 | 0.00 | 0.00 | 0.00 | 60 | 1023.5 |
| 20260508065322 | 40 | 252 | 4.0 | 11.0 | 0.00 | 0.00 | 0.00 | 62 | 1023.7 |
| 20260508064820 | 40 | 252 | 3.0 | 8.0 | 0.00 | 0.00 | 0.00 | 68 | 1023.6 |
| 20260508064318 | 39 | 198 | 9.0 | 14.0 | 0.00 | 0.00 | 0.00 | 70 | 1023.6 |
| 20260508063815 | 37 | 219 | 4.0 | 6.0 | 0.00 | 0.00 | 0.00 | 75 | 1023.7 |
| 20260508063313 | 36 | 225 | 4.0 | 6.0 | 0.00 | 0.00 | 0.00 | 82 | 1023.9 |
| 20260508062810 | 35 | 244 | 3.0 | 4.0 | 0.00 | 0.00 | 0.00 | 81 | 1024.0 |
| 20260508062308 | 35 | 238 | 1.0 | 2.0 | 0.00 | 0.00 | 0.00 | 81 | 1023.6 |
| 20260508061804 | 36 | 179 | 3.0 | 3.0 | 0.00 | 0.00 | 0.00 | 79 | 1023.5 |
| 20260508061301 | 35 | 202 | 2.0 | 4.0 | 0.00 | 0.00 | 0.00 | 78 | 1023.5 |
| 20260508060758 | 36 | 232 | 1.0 | 3.0 | 0.00 | 0.00 | 0.00 | 77 | 1023.7 |
| 20260508060256 | 36 | 240 | 0.0 | 0.0 | 0.00 | 0.00 | 0.00 | 76 | 1023.3 |
| 20260508055751 | 37 | 241 | 1.0 | 2.0 | 0.00 | 0.09 | 0.09 | 75 | 1023.6 |
| 20260508055248 | 38 | 321 | 3.0 | 4.0 | 0.00 | 0.09 | 0.09 | 72 | 1023.6 |
| 20260508054744 | 39 | 260 | 0.0 | 1.0 | 0.00 | 0.09 | 0.09 | 64 | 1023.3 |
| 20260508054243 | 39 | 247 | 1.0 | 1.0 | 0.00 | 0.09 | 0.09 | 66 | 1023.6 |
| 20260508053739 | 37 | 209 | 3.0 | 4.0 | 0.00 | 0.09 | 0.09 | 70 | 1023.6 |
| 20260508053236 | 38 | 218 | 2.0 | 4.0 | 0.00 | 0.09 | 0.09 | 70 | 1023.6 |
| 20260508052734 | 38 | 230 | 0.0 | 3.0 | 0.00 | 0.09 | 0.09 | 69 | 1023.6 |
| 20260508052226 | 39 | 226 | 0.0 | 0.0 | 0.00 | 0.09 | 0.09 | 68 | 1023.5 |
| 20260508051722 | 41 | 21 | 2.0 | 4.0 | 0.00 | 0.09 | 0.09 | 64 | 1023.6 |
| 20260508051217 | 41 | 260 | 0.0 | 0.0 | 0.00 | 0.09 | 0.09 | 57 | 1023.3 |
| 20260508050714 | 42 | 258 | 0.0 | 0.0 | 0.00 | 0.09 | 0.09 | 55 | 1023.3 |
| 20260508050212 | 43 | 236 | 0.0 | 0.0 | 0.00 | 0.09 | 0.09 | 55 | 1023.2 |
| 20260508045712 | 44 | 261 | 0.0 | 6.0 | 0.00 | 0.09 | 0.09 | 51 | 1023.2 |
| 20260508045210 | 44 | 244 | 1.0 | 6.0 | 0.00 | 0.09 | 0.09 | 52 | 1023.3 |
| 20260508044707 | 43 | 237 | 2.0 | 4.0 | 0.00 | 0.09 | 0.09 | 53 | 1023.3 |
| 20260508044203 | 44 | 253 | 0.0 | 2.0 | 0.00 | 0.09 | 0.09 | 51 | 1023.2 |
| 20260508043659 | 44 | 252 | 1.0 | 9.0 | 0.00 | 0.09 | 0.09 | 48 | 1023.5 |
| 20260508043158 | 44 | 270 | 1.0 | 4.0 | 0.00 | 0.09 | 0.09 | 49 | 1023.3 |
| 20260508042654 | 45 | 301 | 4.0 | 8.0 | 0.00 | 0.09 | 0.09 | 49 | 1023.2 |
| 20260508042151 | 44 | 250 | 4.0 | 8.0 | 0.00 | 0.09 | 0.09 | 49 | 1023.2 |
| 20260508041647 | 44 | 239 | 5.0 | 7.0 | 0.00 | 0.09 | 0.09 | 49 | 1023.2 |
| 20260508041145 | 45 | 281 | 2.0 | 10.0 | 0.00 | 0.09 | 0.09 | 49 | 1023.2 |
| 20260508040641 | 44 | 255 | 3.0 | 10.0 | 0.00 | 0.09 | 0.09 | 49 | 1022.8 |
| 20260508040138 | 44 | 202 | 7.0 | 13.0 | 0.00 | 0.09 | 0.09 | 49 | 1022.7 |
| 20260508035636 | 45 | 278 | 4.0 | 14.0 | 0.00 | 0.09 | 0.09 | 49 | 1022.7 |
| 20260508035133 | 45 | 240 | 7.0 | 16.0 | 0.00 | 0.09 | 0.09 | 49 | 1022.9 |
| 20260508034630 | 45 | 230 | 13.0 | 18.0 | 0.00 | 0.09 | 0.09 | 48 | 1023.1 |
| 20260508034127 | 44 | 266 | 3.0 | 8.0 | 0.00 | 0.09 | 0.09 | 49 | 1023.1 |
| 20260508033624 | 44 | 233 | 5.0 | 19.0 | 0.00 | 0.09 | 0.09 | 49 | 1022.8 |
| 20260508033122 | 44 | 245 | 6.0 | 16.0 | 0.00 | 0.09 | 0.09 | 50 | 1022.8 |
| 20260508032618 | 44 | 219 | 11.0 | 16.0 | 0.00 | 0.09 | 0.09 | 51 | 1022.9 |
| 20260508032116 | 42 | 197 | 9.0 | 15.0 | 0.00 | 0.09 | 0.09 | 56 | 1022.8 |
| 20260508031613 | 41 | 216 | 6.0 | 8.0 | 0.00 | 0.09 | 0.09 | 60 | 1022.8 |
| 20260508031109 | 41 | 209 | 2.0 | 7.0 | 0.00 | 0.09 | 0.09 | 61 | 1022.7 |
| 20260508030605 | 42 | 226 | 4.0 | 7.0 | 0.00 | 0.09 | 0.09 | 61 | 1022.7 |
| 20260508030104 | 41 | 231 | 3.0 | 9.0 | 0.00 | 0.09 | 0.09 | 60 | 1022.9 |
| 20260508025559 | 42 | 223 | 2.0 | 4.0 | 0.00 | 0.09 | 0.09 | 60 | 1022.8 |
| 20260508025057 | 42 | 228 | 4.0 | 7.0 | 0.00 | 0.09 | 0.09 | 62 | 1022.7 |
| 20260508024552 | 42 | 220 | 5.0 | 8.0 | 0.00 | 0.09 | 0.09 | 59 | 1022.7 |
| 20260508024050 | 42 | 223 | 7.0 | 13.0 | 0.00 | 0.09 | 0.09 | 59 | 1022.3 |
| 20260508023546 | 43 | 229 | 7.0 | 10.0 | 0.00 | 0.09 | 0.09 | 59 | 1022.5 |
| 20260508023044 | 42 | 212 | 4.0 | 9.0 | 0.00 | 0.09 | 0.09 | 58 | 1022.7 |
| 20260508022539 | 41 | 257 | 4.0 | 13.0 | 0.00 | 0.09 | 0.09 | 64 | 1022.8 |
| 20260508022037 | 41 | 238 | 1.0 | 6.0 | 0.00 | 0.09 | 0.09 | 67 | 1022.7 |
| 20260508021533 | 41 | 237 | 6.0 | 8.0 | 0.00 | 0.09 | 0.09 | 67 | 1022.9 |
| 20260508021029 | 41 | 317 | 4.0 | 11.0 | 0.00 | 0.09 | 0.09 | 68 | 1023.3 |
| 20260508020526 | 41 | 274 | 2.0 | 4.0 | 0.00 | 0.09 | 0.09 | 67 | 1023.5 |
| 20260508020024 | 42 | 310 | 2.0 | 8.0 | 0.00 | 0.09 | 0.09 | 65 | 1023.3 |
| 20260508015521 | 42 | 255 | 1.0 | 7.0 | 0.00 | 0.09 | 0.09 | 65 | 1023.2 |
| 20260508015018 | 42 | 289 | 6.0 | 11.0 | 0.00 | 0.09 | 0.09 | 63 | 1023.1 |
| 20260508014515 | 42 | 230 | 2.0 | 6.0 | 0.00 | 0.09 | 0.09 | 63 | 1022.8 |
| 20260508014011 | 42 | 236 | 2.0 | 8.0 | 0.00 | 0.09 | 0.09 | 63 | 1022.7 |
| 20260508013507 | 43 | 262 | 4.0 | 6.0 | 0.00 | 0.09 | 0.09 | 61 | 1022.8 |
| 20260508013005 | 43 | 234 | 6.0 | 8.0 | 0.00 | 0.09 | 0.09 | 60 | 1022.7 |
| 20260508012501 | 43 | 235 | 4.0 | 7.0 | 0.00 | 0.09 | 0.09 | 60 | 1022.7 |
| 20260508011958 | 44 | 236 | 8.0 | 18.0 | 0.00 | 0.09 | 0.09 | 58 | 1022.7 |
| 20260508011456 | 44 | 220 | 6.0 | 14.0 | 0.00 | 0.09 | 0.09 | 58 | 1022.7 |
| 20260508010953 | 44 | 206 | 7.0 | 9.0 | 0.00 | 0.09 | 0.09 | 57 | 1022.5 |
| 20260508010450 | 45 | 252 | 3.0 | 9.0 | 0.00 | 0.09 | 0.09 | 54 | 1022.9 |
| 20260508005947 | 46 | 270 | 5.0 | 7.0 | 0.00 | 0.09 | 0.09 | 51 | 1022.5 |
| 20260508005444 | 46 | 208 | 4.0 | 10.0 | 0.00 | 0.09 | 0.09 | 49 | 1022.4 |
| 20260508004940 | 47 | 242 | 4.0 | 6.0 | 0.00 | 0.09 | 0.09 | 49 | 1022.4 |
| 20260508004436 | 47 | 299 | 2.0 | 2.0 | 0.00 | 0.09 | 0.09 | 48 | 1022.1 |
| 20260508003933 | 47 | 319 | 3.0 | 3.0 | 0.00 | 0.09 | 0.09 | 48 | 1022.0 |
| 20260508003430 | 48 | 289 | 2.0 | 7.0 | 0.00 | 0.09 | 0.09 | 46 | 1022.1 |
| 20260508002927 | 48 | 300 | 2.0 | 7.0 | 0.00 | 0.09 | 0.09 | 46 | 1021.8 |
| 20260508002424 | 48 | 8 | 2.0 | 4.0 | 0.00 | 0.09 | 0.09 | 47 | 1021.9 |
| 20260508001920 | 48 | 266 | 1.0 | 6.0 | 0.00 | 0.09 | 0.09 | 47 | 1021.9 |
| 20260508001416 | 49 | 321 | 4.0 | 7.0 | 0.00 | 0.09 | 0.09 | 45 | 1022.1 |
| 20260508000913 | 49 | 163 | 4.0 | 9.0 | 0.00 | 0.09 | 0.09 | 45 | 1022.1 |
| 20260508000405 | 48 | 278 | 0.0 | 0.0 | 0.00 | 0.09 | 0.09 | 48 | 1022.3 |
| 20260507235901 | 48 | 279 | 2.0 | 6.0 | 0.00 | 0.09 | 0.09 | 47 | 1022.3 |
| 20260507235358 | 48 | 265 | 2.0 | 4.0 | 0.00 | 0.09 | 0.09 | 46 | 1022.3 |
| 20260507234855 | 47 | 259 | 2.0 | 13.0 | 0.00 | 0.09 | 0.09 | 47 | 1022.1 |
| 20260507234352 | 48 | 281 | 1.0 | 10.0 | 0.00 | 0.09 | 0.09 | 46 | 1022.1 |
| 20260507233848 | 48 | 331 | 8.0 | 14.0 | 0.00 | 0.09 | 0.09 | 44 | 1022.1 |
| 20260507233345 | 49 | 293 | 5.0 | 8.0 | 0.00 | 0.09 | 0.09 | 43 | 1022.0 |
| 20260507232843 | 50 | 247 | 7.0 | 14.0 | 0.00 | 0.09 | 0.09 | 42 | 1022.0 |
| 20260507232339 | 51 | 182 | 8.0 | 14.0 | 0.00 | 0.09 | 0.09 | 40 | 1021.9 |
| 20260507231837 | 52 | 267 | 6.0 | 9.0 | 0.00 | 0.09 | 0.09 | 39 | 1022.0 |
| 20260507231333 | 51 | 271 | 5.0 | 10.0 | 0.00 | 0.09 | 0.09 | 40 | 1022.0 |
| 20260507230829 | 51 | 278 | 13.0 | 17.0 | 0.00 | 0.09 | 0.09 | 40 | 1022.1 |
| 20260507230322 | 51 | 316 | 9.0 | 11.0 | 0.00 | 0.09 | 0.09 | 38 | 1021.9 |
| 20260507225821 | 52 | 217 | 11.0 | 15.0 | 0.00 | 0.09 | 0.09 | 38 | 1022.0 |
| 20260507225317 | 51 | 306 | 6.0 | 7.0 | 0.00 | 0.09 | 0.09 | 39 | 1022.3 |
| 20260507224814 | 51 | 349 | 7.0 | 8.0 | 0.00 | 0.09 | 0.09 | 39 | 1022.0 |
| 20260507224310 | 50 | 323 | 4.0 | 10.0 | 0.00 | 0.09 | 0.09 | 40 | 1022.0 |
| 20260507223807 | 50 | 328 | 3.0 | 9.0 | 0.00 | 0.09 | 0.09 | 41 | 1022.0 |
| 20260507223303 | 50 | 324 | 2.0 | 10.0 | 0.00 | 0.09 | 0.09 | 42 | 1022.1 |
| 20260507222801 | 50 | 325 | 3.0 | 9.0 | 0.00 | 0.09 | 0.09 | 41 | 1022.1 |
| 20260507222256 | 51 | 239 | 2.0 | 8.0 | 0.00 | 0.09 | 0.09 | 40 | 1022.1 |
| 20260507221754 | 51 | 280 | 11.0 | 21.0 | 0.00 | 0.09 | 0.09 | 40 | 1022.1 |
| 20260507221250 | 51 | 41 | 4.0 | 10.0 | 0.00 | 0.09 | 0.09 | 41 | 1022.4 |
| 20260507220746 | 50 | 310 | 2.0 | 6.0 | 0.00 | 0.09 | 0.09 | 40 | 1022.4 |
| 20260507220245 | 50 | 207 | 4.0 | 10.0 | 0.00 | 0.09 | 0.09 | 41 | 1022.5 |
| 20260507215741 | 49 | 317 | 4.0 | 8.0 | 0.00 | 0.09 | 0.09 | 41 | 1022.1 |
| 20260507215238 | 50 | 348 | 6.0 | 9.0 | 0.00 | 0.09 | 0.09 | 40 | 1022.3 |
| 20260507214735 | 50 | 307 | 5.0 | 15.0 | 0.00 | 0.09 | 0.09 | 39 | 1022.5 |
| 20260507214232 | 49 | 279 | 5.0 | 15.0 | 0.00 | 0.09 | 0.09 | 41 | 1022.5 |
| 20260507213727 | 49 | 295 | 6.0 | 10.0 | 0.00 | 0.09 | 0.09 | 41 | 1022.7 |
| 20260507213225 | 49 | 299 | 5.0 | 8.0 | 0.00 | 0.09 | 0.09 | 40 | 1022.7 |
| 20260507212721 | 49 | 233 | 7.0 | 15.0 | 0.00 | 0.09 | 0.09 | 39 | 1022.7 |
| 20260507212218 | 50 | 349 | 3.0 | 14.0 | 0.00 | 0.09 | 0.09 | 42 | 1022.8 |
| 20260507211715 | 50 | 277 | 8.0 | 10.0 | 0.00 | 0.09 | 0.09 | 40 | 1022.9 |
| 20260507211210 | 50 | 336 | 6.0 | 11.0 | 0.00 | 0.09 | 0.09 | 39 | 1023.1 |
| 20260507210708 | 50 | 305 | 2.0 | 10.0 | 0.00 | 0.09 | 0.09 | 37 | 1023.2 |
| 20260507210205 | 50 | 237 | 12.0 | 15.0 | 0.00 | 0.09 | 0.09 | 38 | 1023.2 |
| 20260507205701 | 50 | 261 | 7.0 | 14.0 | 0.00 | 0.09 | 0.09 | 39 | 1023.1 |
| 20260507205158 | 51 | 316 | 6.0 | 14.0 | 0.00 | 0.09 | 0.09 | 40 | 1023.3 |
| 20260507204654 | 51 | 330 | 8.0 | 14.0 | 0.00 | 0.09 | 0.09 | 39 | 1023.1 |
| 20260507204152 | 51 | 351 | 7.0 | 13.0 | 0.00 | 0.09 | 0.09 | 40 | 1022.9 |
| 20260507203650 | 49 | 230 | 5.0 | 16.0 | 0.00 | 0.09 | 0.09 | 40 | 1023.2 |
| 20260507203147 | 50 | 328 | 13.0 | 16.0 | 0.00 | 0.09 | 0.09 | 39 | 1023.2 |
| 20260507202642 | 50 | 8 | 9.0 | 18.0 | 0.00 | 0.09 | 0.09 | 40 | 1022.9 |
| 20260507202139 | 50 | 354 | 6.0 | 16.0 | 0.00 | 0.09 | 0.09 | 40 | 1023.2 |
| 20260507201634 | 51 | 0 | 9.0 | 15.0 | 0.00 | 0.09 | 0.09 | 41 | 1023.2 |
| 20260507201131 | 50 | 332 | 3.0 | 9.0 | 0.00 | 0.09 | 0.09 | 40 | 1023.3 |
| 20260507200627 | 50 | 352 | 3.0 | 11.0 | 0.00 | 0.09 | 0.09 | 43 | 1023.3 |
| 20260507200123 | 50 | 306 | 4.0 | 6.0 | 0.00 | 0.09 | 0.09 | 42 | 1023.2 |
| 20260507195620 | 49 | 251 | 2.0 | 10.0 | 0.00 | 0.09 | 0.09 | 43 | 1023.2 |
| 20260507195117 | 50 | 259 | 3.0 | 13.0 | 0.00 | 0.09 | 0.09 | 43 | 1023.1 |
| 20260507194614 | 51 | 3 | 4.0 | 13.0 | 0.00 | 0.09 | 0.09 | 44 | 1023.3 |
| 20260507194109 | 49 | 257 | 2.0 | 10.0 | 0.00 | 0.09 | 0.09 | 45 | 1023.5 |
| 20260507193607 | 48 | 240 | 6.0 | 15.0 | 0.00 | 0.09 | 0.09 | 44 | 1023.5 |
| 20260507193103 | 48 | 265 | 8.0 | 15.0 | 0.00 | 0.09 | 0.09 | 45 | 1023.3 |
| 20260507192600 | 48 | 264 | 9.0 | 15.0 | 0.00 | 0.09 | 0.09 | 44 | 1023.5 |